Content
SEND FEEDBACK

Daily
Averages
Monthly
Summary
United States of America

GARDINER, OREGON


Home > North America > United States > Oregon
Elevation: 173 feet     Latitude: 43 45N     Longitude: 124 07W

WEATHER
 
SELECT A DAY
Number of Records: 442,961;   Date Range: 1/1/95 - 8/12/14
 
SHARE

PRINT THIS DATA

[ ← Previous Day ]
WEATHER ALMANAC - JANUARY 23, 2013
[ Next Day → ]
[ °C ]   °F
Weather ElementAverageHighLow
Temperature44.5 °F48.2 °F (2:15 pm)39.2 °F (9:15 pm)
Dewpoint43.4 °F46.4 °F (11:15 am)39.2 °F (8:35 pm)
Humidity95.6 %100 % (7:35 am)87 % (12:35 am)
Barometer29.99 in30.20 in (11:35 pm)29.87 in (5:15 am)
Wind Speed3.7 mph12.7 mph (1:55 pm)
Wind Gust18.4 mph (2:35 pm)
Weather ElementAverage
Visibility7 mi
Wind DirectionESE (120.6 °)

Weather ElementTotal
Precipitation1.50 in
Heating Degree Days21.3 (Base 65)
Averaged from 70 records on January 23, 2013
WEATHER CONDITIONS BREAKOUT
WIND DIRECTION BREAKOUT
WEATHER BY HOUR - JANUARY 23, 2013
[ °C ]   °F
Local TimeTemperatureDewpointHumidityBarometerVisibilityWind DirectionWind SpeedGust SpeedPrecipitationEventsConditions
12:35 AM46.4 °F42.8 °F87 %29.92 in10.0 miSE (140°)4.6 mphOvercast
12:55 AM46.4 °F42.8 °F87 %29.91 in10.0 miENE (70°)3.5 mphMostly Cloudy
1:15 AM46.4 °F42.8 °F87 %29.91 in10.0 miESE (120°)3.5 mphPartly Cloudy
1:35 AM44.6 °F42.8 °F93 %29.90 in10.0 miSE (130°)3.5 mphScattered Clouds
1:55 AM44.6 °F42.8 °F93 %29.90 in10.0 miESE (120°)3.5 mphOvercast
2:15 AM44.6 °F42.8 °F93 %29.89 in10.0 miSE (140°)3.5 mphOvercast
2:35 AM44.6 °F42.8 °F93 %29.89 in10.0 miSE (140°)3.5 mphOvercast
2:55 AM44.6 °F42.8 °F93 %29.88 in10.0 miEast (100°)3.5 mphOvercast
3:15 AM46.4 °F42.8 °F87 %29.88 in10.0 miCalmOvercast
3:35 AM46.4 °F42.8 °F87 %29.88 in10.0 miCalmOvercast
3:55 AM44.6 °F42.8 °F93 %29.88 in10.0 miSE (130°)3.5 mphOvercast
4:15 AM44.6 °F42.8 °F93 %29.88 in10.0 miCalmOvercast
4:35 AM44.6 °F42.8 °F93 %29.88 in10.0 miCalmOvercast
4:55 AM44.6 °F42.8 °F93 %29.88 in10.0 miEast (100°)3.5 mphOvercast
5:15 AM44.6 °F42.8 °F93 %29.87 in10.0 miCalmOvercast
5:35 AM44.6 °F42.8 °F93 %29.88 in10.0 miSSE (150°)3.5 mphOvercast
5:55 AM44.6 °F42.8 °F93 %29.88 in10.0 miESE (110°)3.5 mphOvercast
6:15 AM44.6 °F42.8 °F93 %29.88 in10.0 miCalmOvercast
6:35 AM44.6 °F42.8 °F93 %29.88 in10.0 miCalmOvercast
7:15 AM44.6 °F42.8 °F93 %29.88 in10.0 miESE (120°)5.8 mphOvercast
7:35 AM44.6 °F44.6 °F100 %29.88 in10.0 miSE (140°)5.8 mphOvercast
7:55 AM44.6 °F42.8 °F93 %29.88 in5.0 miSE (140°)4.6 mphOvercast
8:15 AM44.6 °F44.6 °F100 %29.88 in5.0 miESE (120°)3.5 mph0.02 inOvercast
8:35 AM44.6 °F44.6 °F100 %29.89 in8.0 miSSE (150°)5.8 mph0.03 inOvercast
8:55 AM44.6 °F44.6 °F100 %29.89 in7.0 miSSE (160°)4.6 mph0.04 inOvercast
9:15 AM44.6 °F42.8 °F93 %29.90 in5.0 miSSE (150°)5.8 mph0.02 inOvercast
9:35 AM44.6 °F42.8 °F93 %29.91 in7.0 miSE (140°)4.6 mph0.05 inOvercast
9:55 AM44.6 °F44.6 °F100 %29.92 in9.0 miSSE (150°)4.6 mph0.06 inOvercast
10:15 AM44.6 °F44.6 °F100 %29.92 in7.0 miSSE (150°)5.8 mph0.01 inOvercast
10:35 AM44.6 °F44.6 °F100 %29.93 in7.0 miSSE (150°)3.5 mph0.04 inOvercast
10:55 AM46.4 °F44.6 °F93 %29.93 in10.0 miSSE (150°)6.9 mph0.06 inOvercast
11:15 AM46.4 °F46.4 °F100 %29.93 in8.0 miSSE (150°)8.1 mph0.02 inOvercast
11:35 AM46.4 °F46.4 °F100 %29.93 in9.0 miSSE (160°)10.4 mph0.05 inOvercast
11:55 AM46.4 °F46.4 °F100 %29.94 in8.0 miSouth (170°)6.9 mph0.08 inOvercast
12:15 PM46.4 °F46.4 °F100 %29.94 in7.0 miSouth (170°)5.8 mph0.05 inOvercast
12:35 PM46.4 °F46.4 °F100 %29.94 in7.0 miCalm0.11 inOvercast
12:55 PM46.4 °F44.6 °F93 %29.94 in6.0 miCalm0.16 inOvercast
1:15 PM46.4 °F44.6 °F93 %29.95 in8.0 miWSW (250°)3.5 mph0.06 inOvercast
1:35 PM46.4 °F44.6 °F93 %29.95 in7.0 miCalm0.13 inOvercast
1:55 PM46.4 °F46.4 °F100 %29.96 in7.0 miNW (310°)12.7 mph17.3 mph0.20 inOvercast
2:15 PM48.2 °F46.4 °F93 %29.98 in10.0 miNNW (330°)6.9 mph0.03 inOvercast
2:35 PM46.4 °F44.6 °F93 %29.99 in10.0 miNorth (350°)12.7 mph18.4 mph0.07 inOvercast
2:55 PM46.4 °F46.4 °F100 %30.00 in10.0 miNorth (350°)11.5 mph18.4 mph0.08 inMostly Cloudy
3:15 PM46.4 °F44.6 °F93 %30.01 in9.0 miNNW (340°)12.7 mph0.01 inOvercast
3:35 PM46.4 °F44.6 °F93 %30.02 in7.0 miNorth (360°)10.4 mph0.03 inOvercast
3:55 PM46.4 °F44.6 °F93 %30.02 in5.0 miNorth (360°)12.7 mph0.03 inOvercast
4:15 PM46.4 °F46.4 °F100 %30.03 in5.0 miNorth (360°)8.1 mph0.01 inMostly Cloudy
4:35 PM46.4 °F46.4 °F100 %30.04 in5.0 miNorth (360°)5.8 mph0.01 inOvercast
4:55 PM46.4 °F46.4 °F100 %30.06 in6.0 miNorth (360°)3.5 mph0.01 inMostly Cloudy
5:15 PM46.4 °F46.4 °F100 %30.07 in10.0 miCalm0.01 inOvercast
5:35 PM46.4 °F46.4 °F100 %30.08 in10.0 miCalm0.01 inOvercast
5:55 PM46.4 °F46.4 °F100 %30.09 in10.0 miCalm0.01 inOvercast
6:15 PM44.6 °F44.6 °F100 %30.09 in10.0 miCalmOvercast
6:35 PM44.6 °F42.8 °F93 %30.10 in9.0 miSSE (160°)3.5 mphOvercast
6:55 PM44.6 °F42.8 °F93 %30.11 in10.0 miCalmOvercast
7:15 PM44.6 °F42.8 °F93 %30.12 in4.0 miCalmMostly Cloudy
7:35 PM44.6 °F42.8 °F93 %30.13 in5.0 miCalmPartly Cloudy
7:55 PM42.8 °F42.8 °F100 %30.14 in3.0 miCalmClear
8:15 PM42.8 °F42.8 °F100 %30.15 in1.8 miCalmMostly Cloudy
8:35 PM41.0 °F39.2 °F93 %30.15 in0.5 miNE (40°)3.5 mphOvercast
8:55 PM42.8 °F41.0 °F93 %30.16 in0.5 miCalmOvercast
9:15 PM39.2 °F39.2 °F100 %30.16 in0.2 miSSE (160°)3.5 mphOvercast
9:35 PM39.2 °F39.2 °F100 %30.17 in0.5 miSE (140°)3.5 mphOvercast
9:55 PM41.0 °F39.2 °F93 %30.18 in0.2 miCalmOvercast
10:15 PM39.2 °F39.2 °F100 %30.19 in0.2 miCalmOvercast
10:35 PM39.2 °F39.2 °F100 %30.19 in0.2 miSE (140°)3.5 mphOvercast
10:55 PM41.0 °F39.2 °F93 %30.19 in0.5 miCalmOvercast
11:15 PM39.2 °F39.2 °F100 %30.19 in0.5 miSE (130°)3.5 mphOvercast
11:35 PM39.2 °F39.2 °F100 %30.20 in0.2 miESE (120°)3.5 mphOvercast
11:55 PM39.2 °F39.2 °F100 %30.19 in0.2 miCalmOvercast
Hourly data recorded from KOTH, located miles away from Gardiner, Oregon







STORIES FROM OUR PARTNERS